Location: Igri�s
(42.2144°N, 0.4320°W)
Time: 21:07:58
(UTC+00:00)

CARTOSAT-1 - Visible Passes

Search period start: 18 June 2021 00:00
Search period end: 28 June 2021 00:00
Orbit: 616 x 618 km, 97.8° (Epoch: 18 June)

Date Brightness Start Highest point End Pass type
(mag) Time Alt. Az. Time Alt. Az. Time Alt. Az.
18 Jun 4.0 21:44:10 23° S 21:46:38 56° W 21:50:54 10° NNW visible
19 Jun 5.2 20:24:06 10° ESE 20:27:19 21° ENE 20:30:31 10° NNE visible
19 Jun 4.7 22:00:47 21° SSW 22:03:08 36° W 22:07:09 10° NNW visible
20 Jun 4.7 20:40:17 12° SE 20:43:37 30° ENE 20:47:23 10° N visible
20 Jun 5.3 22:17:23 16° SW 22:19:40 24° W 22:23:13 10° NW visible
21 Jun 4.1 20:56:53 16° SE 20:59:58 44° ENE 21:04:04 10° N visible
21 Jun 5.9 22:34:00 12° SW 22:36:14 17° W 22:39:01 10° NW visible
22 Jun 3.6 21:13:30 21° SSE 21:16:20 67° ENE 21:20:38 10° N visible
22 Jun 6.2 22:51:45 10° WSW 22:52:51 11° W 22:53:58 10° WNW visible
23 Jun 3.6 21:30:07 23° S 21:32:46 80° WSW 21:37:06 10° NNW visible
24 Jun 4.1 21:46:44 23° SSW 21:49:13 52° W 21:53:27 10° NNW visible
25 Jun 5.1 20:26:33 10° ESE 20:29:51 22° ENE 20:33:12 10° NNE visible
25 Jun 4.8 22:03:20 20° SSW 22:05:43 34° W 22:09:40 10° NNW visible
26 Jun 4.6 20:42:51 13° SE 20:46:11 32° ENE 20:50:00 10° N visible
26 Jun 5.4 22:19:57 15° SW 22:22:15 23° W 22:25:42 10° NW visible
27 Jun 4.0 20:59:28 17° SE 21:02:31 47° ENE 21:06:40 10° N visible
27 Jun 5.9 22:36:34 11° SW 22:38:50 15° W 22:41:25 10° NW visible
